DLH27H EHRD-EDDB

Flight info

Callsign DLH27H
Flight time 0h 59m
Altitude 35000
Route ARNEM L620 SUVOX Z718 OSNAD DCT BATEL T207 OGBER OGBER1R
Aircraft A321/M-SDE3FGHIRWY/LB1

Departure

Time 2026-05-07 15:43
Airport Rotterdam The Hague Airport (EHRD)

Arrival

Time 2026-05-07 16:42
Airport Berlin Brandenburg Airport (EDDB)
Time Latitude Longitude Altitude Speed Heading
2026-05-07 15:14 51.95110 4.43488 3 ft 0 kts 327°
2026-05-07 15:39 51.95117 4.43481 1 ft 2 kts 327°
2026-05-07 15:40 51.95140 4.43462 1 ft 5 kts 346°
2026-05-07 15:40 51.95167 4.43487 1 ft 5 kts 34°
2026-05-07 15:40 51.95202 4.43477 1 ft 7 kts 331°
2026-05-07 15:40 51.95244 4.43423 1 ft 8 kts 292°
2026-05-07 15:41 51.95220 4.43344 1 ft 10 kts 236°
2026-05-07 15:41 51.95179 4.43244 1 ft 11 kts 236°
2026-05-07 15:41 51.95137 4.43133 1 ft 12 kts 246°
2026-05-07 15:41 51.95107 4.43005 1 ft 13 kts 263°
2026-05-07 15:42 51.95168 4.42883 1 ft 17 kts 330°
2026-05-07 15:42 51.95237 4.42887 3 ft 8 kts 52°
2026-05-07 15:42 51.95289 4.43019 1 ft 35 kts 57°
2026-05-07 15:42 51.95584 4.43757 1 ft 115 kts 57°
2026-05-07 15:43 51.96104 4.45045 49 ft 165 kts 56°
2026-05-07 15:43 51.96691 4.46578 728 ft 167 kts 53°
2026-05-07 15:43 51.97253 4.48110 1508 ft 166 kts 58°
2026-05-07 15:43 51.97798 4.49754 2314 ft 166 kts 62°
2026-05-07 15:44 51.98285 4.51364 3035 ft 169 kts 65°
2026-05-07 15:44 51.98770 4.53117 3776 ft 172 kts 68°
2026-05-07 15:44 51.99078 4.55034 3881 ft 180 kts 83°
2026-05-07 15:44 51.99205 4.57122 3267 ft 195 kts 85°
2026-05-07 15:45 51.99304 4.59384 2906 ft 212 kts 85°
2026-05-07 15:45 51.99422 4.61866 2954 ft 230 kts 85°
2026-05-07 15:45 51.99574 4.64583 3003 ft 250 kts 84°
2026-05-07 15:45 51.99753 4.67413 3008 ft 254 kts 83°
2026-05-07 15:46 52.00153 4.73092 3004 ft 255 kts 83°
2026-05-07 15:46 52.00364 4.75971 3560 ft 257 kts 83°
2026-05-07 15:46 52.00583 4.78894 4361 ft 259 kts 83°
2026-05-07 15:47 52.00804 4.81783 5073 ft 263 kts 84°
2026-05-07 15:47 52.01033 4.84790 5795 ft 267 kts 84°
2026-05-07 15:47 52.01261 4.87796 6514 ft 270 kts 84°
2026-05-07 15:47 52.01490 4.90836 7177 ft 273 kts 84°
2026-05-07 15:48 52.01721 4.93929 7840 ft 277 kts 84°
2026-05-07 15:48 52.01955 4.97061 8463 ft 283 kts 84°
2026-05-07 15:48 52.02194 5.00253 9099 ft 287 kts 84°
2026-05-07 15:48 52.02434 5.03503 9744 ft 292 kts 84°
2026-05-07 15:49 52.02677 5.06815 10213 ft 302 kts 84°
2026-05-07 15:49 52.02931 5.10284 10525 ft 315 kts 84°
2026-05-07 15:49 52.03192 5.13841 11087 ft 319 kts 84°
2026-05-07 15:49 52.03455 5.17437 11662 ft 323 kts 84°
2026-05-07 15:50 52.03717 5.21073 12262 ft 326 kts 83°
2026-05-07 15:50 52.03981 5.24745 12891 ft 328 kts 84°
2026-05-07 15:50 52.04243 5.28435 13468 ft 332 kts 84°
2026-05-07 15:50 52.04505 5.32108 14024 ft 334 kts 83°
2026-05-07 15:51 52.04773 5.35862 14563 ft 336 kts 84°
2026-05-07 15:51 52.05042 5.39664 15070 ft 340 kts 84°
2026-05-07 15:51 52.05312 5.43482 15628 ft 342 kts 83°
2026-05-07 15:51 52.05583 5.47343 16191 ft 344 kts 83°
2026-05-07 15:52 52.05854 5.51221 16727 ft 347 kts 84°
2026-05-07 15:52 52.06125 5.55119 17248 ft 349 kts 84°
2026-05-07 15:52 52.06399 5.59058 17764 ft 352 kts 84°
2026-05-07 15:52 52.06675 5.63087 18288 ft 355 kts 84°
2026-05-07 15:53 52.06944 5.67036 18725 ft 357 kts 84°
2026-05-07 15:53 52.07219 5.71068 19173 ft 360 kts 84°
2026-05-07 15:53 52.07498 5.75175 19621 ft 363 kts 84°
2026-05-07 15:53 52.07774 5.79267 20058 ft 365 kts 84°
2026-05-07 15:54 52.08046 5.83335 20485 ft 368 kts 84°
2026-05-07 15:54 52.08326 5.87536 20931 ft 371 kts 84°
2026-05-07 15:54 52.08603 5.91728 21344 ft 373 kts 84°
2026-05-07 15:54 52.08878 5.95937 21761 ft 376 kts 84°
2026-05-07 15:55 52.09155 6.00190 22167 ft 379 kts 84°
2026-05-07 15:55 52.09428 6.04451 22569 ft 381 kts 86°
2026-05-07 15:55 52.09456 6.08772 22969 ft 383 kts 95°
2026-05-07 15:55 52.09094 6.13084 23364 ft 385 kts 101°
2026-05-07 15:56 52.08641 6.17377 23733 ft 388 kts 101°
2026-05-07 15:56 52.08189 6.21716 24067 ft 390 kts 101°
2026-05-07 15:56 52.07735 6.26076 24399 ft 392 kts 101°
2026-05-07 15:56 52.07278 6.30453 24726 ft 394 kts 101°
2026-05-07 15:57 52.06819 6.34844 25041 ft 395 kts 101°
2026-05-07 15:57 52.06512 6.37771 25158 ft 400 kts 101°
2026-05-07 15:57 52.06036 6.42261 25280 ft 407 kts 101°
2026-05-07 15:57 52.05546 6.46840 25410 ft 414 kts 101°
2026-05-07 15:58 52.05039 6.51554 25527 ft 422 kts 101°
2026-05-07 15:58 52.04540 6.56224 25663 ft 429 kts 101°
2026-05-07 15:58 52.04026 6.61036 25799 ft 435 kts 101°
2026-05-07 15:58 52.03504 6.65893 26035 ft 439 kts 101°
2026-05-07 15:59 52.02974 6.70787 26325 ft 441 kts 101°
2026-05-07 15:59 52.02431 6.75756 26627 ft 443 kts 101°
2026-05-07 15:59 52.01818 6.80658 26923 ft 444 kts 104°
2026-05-07 15:59 52.01095 6.85553 27217 ft 446 kts 105°
2026-05-07 16:00 52.00303 6.90409 27520 ft 447 kts 106°
2026-05-07 16:00 51.99471 6.95296 27828 ft 449 kts 106°
2026-05-07 16:00 51.98638 7.00186 28124 ft 451 kts 106°
2026-05-07 16:00 51.97844 7.05102 28416 ft 453 kts 102°
2026-05-07 16:01 51.97570 7.10205 28718 ft 456 kts 88°
2026-05-07 16:01 51.97961 7.15298 28971 ft 457 kts 77°
2026-05-07 16:01 51.98849 7.20271 29220 ft 459 kts 70°
2026-05-07 16:01 51.99899 7.25164 29461 ft 461 kts 71°
2026-05-07 16:02 52.00899 7.30109 29702 ft 462 kts 72°
2026-05-07 16:02 52.01877 7.35109 29933 ft 464 kts 72°
2026-05-07 16:02 52.02841 7.40099 30142 ft 465 kts 72°
2026-05-07 16:02 52.03811 7.45119 30413 ft 464 kts 72°
2026-05-07 16:03 52.04778 7.50096 30710 ft 464 kts 72°
2026-05-07 16:03 52.05757 7.55096 30963 ft 463 kts 72°
2026-05-07 16:03 52.06739 7.60076 31213 ft 463 kts 72°
2026-05-07 16:03 52.07722 7.65042 31457 ft 462 kts 72°
2026-05-07 16:04 52.08705 7.70018 31706 ft 461 kts 72°
2026-05-07 16:04 52.09685 7.74986 31938 ft 461 kts 72°
2026-05-07 16:04 52.10660 7.79944 32191 ft 460 kts 72°
2026-05-07 16:04 52.11632 7.84908 32406 ft 460 kts 72°
2026-05-07 16:05 52.12595 7.89863 32650 ft 459 kts 72°
2026-05-07 16:05 52.13551 7.94807 32939 ft 457 kts 72°
2026-05-07 16:05 52.14496 7.99728 33225 ft 455 kts 71°
2026-05-07 16:05 52.15440 8.04643 33457 ft 454 kts 72°
2026-05-07 16:06 52.16391 8.09604 33743 ft 453 kts 71°
2026-05-07 16:06 52.17330 8.14503 34034 ft 453 kts 71°
2026-05-07 16:06 52.18267 8.19392 34295 ft 452 kts 72°
2026-05-07 16:06 52.19203 8.24284 34482 ft 453 kts 72°
2026-05-07 16:07 52.20118 8.29195 34645 ft 453 kts 73°
2026-05-07 16:07 52.20928 8.34170 34775 ft 454 kts 76°
2026-05-07 16:07 52.21633 8.39183 34935 ft 454 kts 77°
2026-05-07 16:07 52.22276 8.44237 35058 ft 455 kts 78°
2026-05-07 16:08 52.22891 8.49280 35091 ft 452 kts 78°
2026-05-07 16:08 52.24141 8.59318 35087 ft 451 kts 78°
2026-05-07 16:09 52.25459 8.69314 35090 ft 451 kts 77°
2026-05-07 16:09 52.26803 8.79315 35085 ft 451 kts 77°
2026-05-07 16:10 52.28128 8.89320 35083 ft 451 kts 77°
2026-05-07 16:10 52.29431 8.99349 35083 ft 451 kts 78°
2026-05-07 16:11 52.30728 9.09447 35090 ft 452 kts 78°
2026-05-07 16:11 52.32016 9.19501 35095 ft 452 kts 78°
2026-05-07 16:12 52.33299 9.29566 35095 ft 452 kts 78°
2026-05-07 16:12 52.34579 9.39639 35097 ft 452 kts 78°
2026-05-07 16:13 52.35836 9.49711 35096 ft 452 kts 78°
2026-05-07 16:13 52.37092 9.59807 35124 ft 452 kts 78°
2026-05-07 16:14 52.38341 9.69889 35131 ft 452 kts 78°
2026-05-07 16:14 52.39591 9.80055 35133 ft 452 kts 78°
2026-05-07 16:15 52.40821 9.90146 35127 ft 452 kts 78°
2026-05-07 16:15 52.42037 10.00236 35110 ft 452 kts 79°
2026-05-07 16:16 52.43243 10.10342 35102 ft 452 kts 79°
2026-05-07 16:16 52.44447 10.20453 35105 ft 452 kts 79°
2026-05-07 16:17 52.45643 10.30569 35099 ft 452 kts 79°
2026-05-07 16:17 52.46836 10.40703 35122 ft 452 kts 79°
2026-05-07 16:18 52.48015 10.50838 35115 ft 453 kts 79°
2026-05-07 16:18 52.49182 10.61008 35101 ft 454 kts 79°
2026-05-07 16:19 52.50345 10.71208 35098 ft 455 kts 79°
2026-05-07 16:19 52.51506 10.81425 35101 ft 456 kts 79°
2026-05-07 16:20 52.52658 10.91646 35096 ft 456 kts 79°
2026-05-07 16:20 52.53802 11.01909 35096 ft 456 kts 80°
2026-05-07 16:21 52.54756 11.12189 35096 ft 455 kts 88°
2026-05-07 16:21 52.54999 11.22586 35099 ft 455 kts 88°
2026-05-07 16:22 52.55231 11.33051 35094 ft 456 kts 88°
2026-05-07 16:22 52.55454 11.43452 35057 ft 455 kts 88°
2026-05-07 16:22 52.55565 11.48624 34093 ft 451 kts 88°
2026-05-07 16:23 52.55673 11.53717 33107 ft 441 kts 88°
2026-05-07 16:23 52.55779 11.58696 32157 ft 431 kts 89°
2026-05-07 16:23 52.55882 11.63566 31245 ft 421 kts 89°
2026-05-07 16:23 52.55976 11.68327 30315 ft 413 kts 89°
2026-05-07 16:24 52.56062 11.73001 29253 ft 406 kts 89°
2026-05-07 16:24 52.56142 11.77596 28189 ft 400 kts 89°
2026-05-07 16:24 52.56222 11.82126 27139 ft 394 kts 89°
2026-05-07 16:24 52.56300 11.86613 26118 ft 389 kts 89°
2026-05-07 16:25 52.56379 11.91036 25141 ft 385 kts 88°
2026-05-07 16:25 52.56455 11.95408 24205 ft 381 kts 88°
2026-05-07 16:25 52.56527 11.99730 23233 ft 377 kts 88°
2026-05-07 16:25 52.56595 12.04016 22189 ft 372 kts 88°
2026-05-07 16:26 52.56647 12.08232 21200 ft 366 kts 91°
2026-05-07 16:26 52.56165 12.12287 20271 ft 360 kts 113°
2026-05-07 16:26 52.54859 12.15708 19367 ft 354 kts 135°
2026-05-07 16:26 52.53632 12.17454 18757 ft 350 kts 144°
2026-05-07 16:27 52.50956 12.20472 17508 ft 346 kts 147°
2026-05-07 16:27 52.48954 12.22645 17044 ft 344 kts 147°
2026-05-07 16:27 52.47006 12.24742 16640 ft 324 kts 147°
2026-05-07 16:27 52.45167 12.26714 16133 ft 310 kts 147°
2026-05-07 16:28 52.43396 12.28605 15589 ft 297 kts 147°
2026-05-07 16:28 52.41706 12.30398 15142 ft 282 kts 147°
2026-05-07 16:28 52.40092 12.32142 14551 ft 275 kts 141°
2026-05-07 16:28 52.38793 12.34396 13908 ft 271 kts 128°
2026-05-07 16:29 52.37633 12.36787 13204 ft 268 kts 127°
2026-05-07 16:29 52.36849 12.38405 12734 ft 266 kts 127°
2026-05-07 16:29 52.35708 12.40760 12064 ft 263 kts 127°
2026-05-07 16:29 52.34582 12.43080 11426 ft 259 kts 127°
2026-05-07 16:30 52.33468 12.45383 10818 ft 258 kts 126°
2026-05-07 16:30 52.32685 12.47964 10468 ft 252 kts 103°
2026-05-07 16:30 52.32413 12.50772 10102 ft 249 kts 97°
2026-05-07 16:30 52.32172 12.53574 9704 ft 247 kts 97°
2026-05-07 16:31 52.31933 12.56337 9306 ft 245 kts 97°
2026-05-07 16:31 52.31694 12.59094 8874 ft 244 kts 97°
2026-05-07 16:31 52.31457 12.61836 8461 ft 243 kts 97°
2026-05-07 16:31 52.31220 12.64560 8066 ft 241 kts 97°
2026-05-07 16:32 52.30986 12.67257 7678 ft 240 kts 96°
2026-05-07 16:32 52.30753 12.69936 7307 ft 239 kts 96°
2026-05-07 16:32 52.30518 12.72623 6929 ft 237 kts 96°
2026-05-07 16:32 52.30285 12.75275 6560 ft 235 kts 96°
2026-05-07 16:33 52.30055 12.77914 6174 ft 234 kts 96°
2026-05-07 16:33 52.29828 12.80525 5790 ft 232 kts 96°
2026-05-07 16:33 52.29600 12.83122 5409 ft 230 kts 96°
2026-05-07 16:33 52.29374 12.85691 5039 ft 228 kts 96°
2026-05-07 16:34 52.29152 12.88237 4649 ft 226 kts 96°
2026-05-07 16:34 52.28932 12.90759 4260 ft 224 kts 96°
2026-05-07 16:34 52.28711 12.93265 3907 ft 222 kts 96°
2026-05-07 16:34 52.28488 12.95740 3523 ft 220 kts 95°
2026-05-07 16:35 52.28264 12.98201 3119 ft 219 kts 96°
2026-05-07 16:35 52.28041 13.00647 2987 ft 218 kts 96°
2026-05-07 16:35 52.27818 13.03100 2990 ft 219 kts 95°
2026-05-07 16:35 52.27597 13.05560 2987 ft 214 kts 95°
2026-05-07 16:36 52.27383 13.07936 2989 ft 209 kts 95°
2026-05-07 16:36 52.27173 13.10266 2992 ft 207 kts 95°
2026-05-07 16:36 52.26963 13.12590 3000 ft 206 kts 95°
2026-05-07 16:36 52.27003 13.14893 3005 ft 203 kts 75°
2026-05-07 16:37 52.27428 13.17113 3003 ft 202 kts 68°
2026-05-07 16:37 52.27930 13.19255 3004 ft 202 kts 67°
2026-05-07 16:37 52.28443 13.21387 3005 ft 202 kts 67°
2026-05-07 16:37 52.28951 13.23497 3005 ft 202 kts 67°
2026-05-07 16:38 52.29471 13.25657 2916 ft 202 kts 67°
2026-05-07 16:38 52.29977 13.27762 2713 ft 199 kts 67°
2026-05-07 16:38 52.30461 13.29789 2571 ft 183 kts 67°
2026-05-07 16:38 52.30910 13.31690 2335 ft 174 kts 67°
2026-05-07 16:39 52.31348 13.33502 1980 ft 169 kts 66°
2026-05-07 16:39 52.31746 13.35198 1814 ft 155 kts 67°
2026-05-07 16:39 52.32141 13.36818 1577 ft 151 kts 66°
2026-05-07 16:39 52.32527 13.38402 1343 ft 149 kts 67°
2026-05-07 16:40 52.32889 13.39958 1080 ft 145 kts 68°
2026-05-07 16:40 52.33255 13.41450 877 ft 136 kts 67°
2026-05-07 16:40 52.33619 13.42897 701 ft 141 kts 69°
2026-05-07 16:40 52.33969 13.44390 510 ft 142 kts 70°
2026-05-07 16:41 52.34323 13.45902 354 ft 143 kts 70°
2026-05-07 16:41 52.34678 13.47410 166 ft 138 kts 70°
2026-05-07 16:41 52.34974 13.48681 154 ft 95 kts 69°
2026-05-07 16:41 52.35174 13.49515 154 ft 67 kts 69°
2026-05-07 16:42 52.35317 13.50127 154 ft 51 kts 69°
2026-05-07 16:42 52.35453 13.50515 154 ft 34 kts 44°
2026-05-07 16:42 52.35589 13.50700 154 ft 23 kts 39°
2026-05-07 16:42 52.35665 13.50800 154 ft 13 kts 39°
2026-05-07 16:43 52.35745 13.50843 154 ft 13 kts 353°
2026-05-07 16:43 52.35822 13.50797 154 ft 11 kts 336°
2026-05-07 16:43 52.35893 13.50748 154 ft 11 kts 338°
2026-05-07 16:43 52.35934 13.50721 154 ft 7 kts 339°
2026-05-07 16:44 52.36004 13.50678 154 ft 13 kts 339°
2026-05-07 16:44 52.36094 13.50623 154 ft 15 kts 339°
2026-05-07 16:44 52.36196 13.50558 155 ft 17 kts 339°
2026-05-07 16:44 52.36314 13.50483 155 ft 19 kts 339°
2026-05-07 16:45 52.36430 13.50409 155 ft 19 kts 338°
2026-05-07 16:45 52.36542 13.50338 155 ft 11 kts 340°
2026-05-07 16:45 52.36570 13.50322 155 ft 2 kts 340°
2026-05-07 16:45 52.36577 13.50328 155 ft 2 kts 30°
2026-05-07 16:46 52.36599 13.50388 155 ft 8 kts 64°
2026-05-07 16:46 52.36614 13.50445 155 ft 0 kts 68°